Location: Crni Vrh Observatory
(45.9460°N, 14.0712°E)
Time: 10:06:32
(UTC+02:00)

ACS3 Solar Sail - Visible Passes

Search period start: 21 May 2026 00:00
Search period end: 31 May 2026 00:00
Orbit: 902 x 937 km, 97.2° (Epoch: 20 May)

Date Brightness Start Highest point End Pass type
(mag) Time Alt. Az. Time Alt. Az. Time Alt. Az.
21 May 3.2 00:37:41 10° NE 00:42:13 22° E 00:43:41 20° ESE visible
21 May 1.9 02:19:08 10° N 02:24:57 62° WNW 02:27:09 38° SW visible
21 May 3.8 04:04:20 10° NW 04:06:06 11° NW 04:07:53 10° WNW visible
22 May 3.0 00:45:48 10° NE 00:50:42 26° E 00:52:13 24° ESE visible
22 May 2.1 02:27:34 10° N 02:33:18 53° WNW 02:35:41 33° SW visible
23 May 2.8 00:53:58 10° NNE 00:59:10 31° E 01:00:45 27° ESE visible
23 May 2.3 02:36:02 10° N 02:41:37 45° WNW 02:44:13 29° WSW visible
24 May 2.6 01:02:12 10° NNE 01:07:38 36° E 01:09:17 31° SE visible
24 May 2.5 02:44:32 10° N 02:49:56 39° WNW 02:52:45 25° WSW visible
25 May 2.4 01:10:27 10° NNE 01:16:04 43° E 01:17:49 35° SE visible
25 May 2.7 02:53:02 10° N 02:58:14 33° WNW 03:01:17 21° WSW visible
26 May 2.1 01:18:44 10° NNE 01:24:31 51° E 01:26:20 38° SE visible
26 May 3.0 03:01:34 10° N 03:06:31 29° WNW 03:09:48 18° WSW visible
27 May 1.9 01:27:03 10° NNE 01:32:56 60° E 01:34:51 41° SSE visible
27 May 3.1 03:10:08 10° N 03:14:48 25° WNW 03:18:19 15° WSW visible
27 May 3.9 23:56:50 10° ENE 23:57:58 10° E 23:59:05 10° E visible
28 May 1.8 01:35:23 10° NNE 01:41:19 70° E 01:43:22 42° S visible
28 May 3.3 03:18:44 10° NNW 03:23:04 22° WNW 03:26:50 12° WSW visible
29 May 3.7 00:03:52 10° ENE 00:06:29 13° E 00:08:25 11° ESE visible
29 May 1.7 01:43:44 10° NNE 01:49:42 82° ESE 01:51:53 42° S visible
29 May 3.5 03:27:23 10° NNW 03:31:18 19° WNW 03:35:14 10° W visible
30 May 3.6 00:11:34 10° NE 00:15:01 16° E 00:16:55 14° ESE visible
30 May 1.6 01:52:07 10° N 01:58:05 86° W 02:00:23 40° SSW visible
30 May 3.7 03:36:06 10° NNW 03:39:31 16° WNW 03:42:58 10° W visible
